Weather in Bolshiye Kabany

Russia / Republic of Tatarstan     55°38′51″N   49°18′28″E
temp.,
°C
wind,
m/s
gust,
m/s
humid.,
%
clouds,
%
prec.,
mm/h
press.,
hPa
HPBL,
m
24 january, mon
mon2400:00−8sse2397100 0.4 103467
03:00−10sse1198100 0.4 103510
06:00−13ese1199100 0.0 10369
09:00−13ne009997 0.1 103710
12:00−9se119495 0.0 103679
15:00−11se119787 0.0 103610
18:00−17se1110066 0.0 10369
21:00−19sse2210035 0.0 10369
25 january, tue
tue2500:00−22s1110059 0.0 10359
03:00−23sse22100100 0.0 103412
06:00−23sse22100100 0.0 103223
09:00−21sse3410098 0.0 103163
12:00−14s36935 0.0 1029144
15:00−15sse35945 0.0 102782
18:00−19sse369998 0.0 102679
21:00−19sse38100100 0.0 1025105
26 january, wed
wed2600:00−19sse379974 0.0 102396
03:00−17sse389998 0.0 1022150
06:00−14sse4997100 0.0 1020207
09:00−13sse399797 0.1 1019233
12:00−10sse4794100 0.1 1018280
15:00−10sse369594 0.3 1017263
18:00−11sse2597100 0.2 101793
21:00−12s249780 0.4 101770
27 january, thu
thu2700:00−12ssw249780 0.2 101776
03:00−11sw2696100 0.3 1018160
06:00−14ssw2398100 0.0 101858
09:00−12s2696100 0.0 1019153
12:00−9ssw4792100 0.0 1019366
15:00−10ssw4793100 0.0 1019312
18:00−16s359871 0.0 102064
21:00−19s2210096 0.0 102021
28 january, fri
fri2800:00−19s23100100 0.1 102134
03:00−22sse22100100 0.1 102117
06:00−23sse22100100 0.0 102116
09:00−20sse23100100 0.1 102141
12:00−13sse239798 0.0 1020117
15:00−13se229757 0.1 102034
18:00−19ese2210072 0.0 101910
21:00−19e2110080 0.0 10189